Location: Eschertshofen
(49.3064°N, 11.5756°E)
Time: 05:15:01
(UTC+00:00)

Cosmos 1844 Rocket - Pass Details

Date: 18 September 2020
Orbit: 823 x 846 km, 71.0° (Epoch: 20 October)

Event Time Altitude Azimuth Distance (km) Brightness Sun altitude
Rises 19:39:24 0° 206° (SSW) 3,347 5.8 -22.4°
Reaches altitude 10° 19:41:48 10° 206° (SSW) 2,419 5.0 -22.8°
Maximum altitude 19:47:22 89° 117° (ESE) 834 2.5 -23.5°
Drops below altitude 10° 19:52:59 10° 29° (NNE) 2,446 5.2 -24.3°
Sets 19:55:26 0° 29° (NNE) 3,387 5.9 -24.6°
